BREEZE-M DEB (TANK) - Orbit

View from above orbital plane
View from above orbital plane
View from above satellite
View from above satellite

Ground track
Ground track

The orbit data is extracted from the following two-line orbital elements,

1 27821U 03024B   13142.45625606  .00007904  00000-0  99351-3 0  1851
2 27821 049.5824 141.6035 5047800 000.1227 210.0150 05.56033455196157
Epoch (UTC): 22 May 2013 10:57:00
Eccentricity: 0.5047800
inclination: 49.5824°
perigee height: 287 km
apogee height: 13874 km
right ascension of ascending node: 141.6035°
argument of perigee: 0.1227°
revolutions per day: 5.56033455
mean anomaly at epoch: 210.0150°
orbit number at epoch: 19615

The dashed part of the orbit path shows where the satellite is in the earth's shadow,  

Developed and maintained by Chris Peat, Heavens-Above GmbH. Please read the updated FAQ before sending e-mail. Imprint. DLR